Home   Weather   Terre Haute   Past weeks
Flag for USA

Past Weather in Terre Haute, Indiana, USA — Yesterday and Last 2 Weeks

Now
85 °F

Sunny.


Feels Like: 86 °F
Forecast: 85 / 62 °F
Wind: N/A

Location: Terre Haute International Airport - Hulman Field

Current Time: Sep 18, 2019 at 6:03:47 pm

Latest Report: Sep 18, 2019 at 4:53 pm


Visibility: 10 mi

Pressure: 30.05 "Hg

Humidity: 48%

Dew Point: 63 °F

Location of Terre HauteLocation

Past Weather in Terre Haute — Graph

°F

Terre Haute Temperature Yesterday

Maximum temperature yesterday: 85 °F (at 3:53 pm)
Minimum temperature yesterday: 64 °F (at 7:53 am)
Average temperature yesterday: 73 °F

High & Low Weather Summary for the Past Weeks

 TemperatureHumidityPressure
High92 °F (Sep 10, 3:53 pm)97% (Sep 6, 3:53 am)30.29 "Hg (Sep 6, 3:53 am)
Low54 °F (Sep 14, 7:04 am)36% (Sep 13, 4:53 pm)29.88 "Hg (Sep 6, 3:53 pm)
Average73 °F76%30.08 "Hg
* Reported Sep 3 3:53 pm — Sep 18 3:53 pm, Terre Haute. Weather by CustomWeather, © 2019

Note: Actual official high and low records may vary slightly from our data, if they occured in-between our weather recording intervals... More about our weather records

Advertising

Terre Haute Weather History for the Previous 24 Hours

Scroll right to see more
 ConditionsComfort  
Time TempWeatherWind HumidityBarometerVisibility
3:53 pm
Wed, Sep 18
85 °FSunny.5 mph43%30.07 "Hg10 mi
2:53 pm84 °FSunny.5 mph46%30.09 "Hg10 mi
1:53 pm83 °FSunny.5 mph50%30.10 "Hg10 mi
1:04 pm81 °FPassing clouds.3 mph53%30.12 "Hg10 mi
11:53 am79 °FSunny.No wind58%30.11 "Hg10 mi
5:53 am61 °FClear.3 mph93%30.07 "Hg10 mi
4:53 am62 °FClear.5 mph90%30.08 "Hg10 mi
3:53 am64 °FClear.No wind87%30.08 "Hg10 mi
2:53 am64 °FClear.3 mph87%30.09 "Hg10 mi
1:53 am64 °FClear.6 mph90%30.08 "Hg10 mi
12:53 am65 °FClear.6 mph87%30.07 "Hg10 mi
11:53 pm
Tue, Sep 17
65 °FClear.5 mph91%30.07 "Hg10 mi
10:53 pm67 °FClear.7 mph87%30.07 "Hg10 mi
9:53 pm70 °FClear.9 mph84%30.07 "Hg10 mi
8:53 pm71 °FClear.8 mph84%30.06 "Hg10 mi
7:53 pm72 °FSunny.6 mph78%30.06 "Hg10 mi
6:53 pm77 °FSunny.6 mph66%30.05 "Hg10 mi
Weather by CustomWeather, © 2019

See weather overview